Terug naar catalogus

VINDLER 2.2

ActiefMilitairSSO
NORAD 68484·PAYLOAD·🇺🇸 United States

Gelanceerd Mar 30, 2026 vanaf Vandenberg Space Force Base

Loading…

Volgende Passages (komende 24 uur)

TLE

VersSource: Space-Track

Epoch: Sep 13, 2026, 21:33 UTC

1 68484U 26067BW  26256.89851904  .00001450  00000-0  14769-3 0  9996
2 68484  97.7620 214.7394 0003055  64.8260 295.3276 14.92234722 25009

Volg VINDLER 2.2 in realtime met AllMySat

Download on the App Store